TimeEDT,TemperatureF,Dew PointF,Humidity,Sea Level PressureIn,VisibilityMPH,Wind Direction,Wind SpeedMPH,Gust SpeedMPH,PrecipitationIn,Events,Conditions,WindDirDegrees,DateUTC
12:14 AM,53.8,49.3,85,30.23,10.0,Calm,Calm,-,N/A,,Clear,0,2013-08-18 04:14:00
12:35 AM,53.6,50.9,91,30.22,10.0,Calm,Calm,-,N/A,,Clear,0,2013-08-18 04:35:00
12:55 AM,53.1,50.2,90,30.22,10.0,Calm,Calm,-,N/A,,Clear,0,2013-08-18 04:55:00
1:14 AM,50.9,48.4,91,30.23,10.0,Calm,Calm,-,N/A,,Clear,0,2013-08-18 05:14:00
1:35 AM,50.9,49.1,94,30.23,10.0,Calm,Calm,-,N/A,,Clear,0,2013-08-18 05:35:00
1:55 AM,48.4,47.3,96,30.23,10.0,Calm,Calm,-,N/A,,Clear,0,2013-08-18 05:55:00
2:15 AM,48.4,46.8,94,30.23,10.0,Calm,Calm,-,N/A,,Clear,0,2013-08-18 06:15:00
2:35 AM,48.4,48.2,99,30.23,10.0,Calm,Calm,-,N/A,,Clear,0,2013-08-18 06:35:00
2:55 AM,48.4,48.0,99,30.23,10.0,Calm,Calm,-,N/A,,Clear,0,2013-08-18 06:55:00
3:15 AM,46.9,45.7,95,30.23,10.0,Calm,Calm,-,N/A,,Clear,0,2013-08-18 07:15:00
3:35 AM,48.4,48.2,99,30.23,10.0,Calm,Calm,-,N/A,,Clear,0,2013-08-18 07:35:00
3:55 AM,45.9,45.7,99,30.24,10.0,Calm,Calm,-,N/A,,Clear,0,2013-08-18 07:55:00
4:14 AM,48.4,48.4,100,30.24,7.0,Calm,Calm,-,N/A,,Clear,0,2013-08-18 08:14:00
4:35 AM,44.8,44.4,99,30.24,1.5,Calm,Calm,-,N/A,,Mist,0,2013-08-18 08:35:00
4:55 AM,45.9,45.7,99,30.24,3.0,Calm,Calm,-,N/A,,Clear,0,2013-08-18 08:55:00
5:15 AM,44.6,43.3,95,30.24,10.0,Calm,Calm,-,N/A,,Clear,0,2013-08-18 09:15:00
5:35 AM,42.1,41.7,99,30.24,5.0,Calm,Calm,-,N/A,,Clear,0,2013-08-18 09:35:00
5:55 AM,43.9,43.5,99,30.24,7.0,Calm,Calm,-,N/A,,Clear,0,2013-08-18 09:55:00
6:15 AM,42.1,41.5,98,30.24,10.0,Calm,Calm,-,N/A,,Clear,0,2013-08-18 10:15:00
6:35 AM,43.2,43.2,100,30.25,10.0,Calm,Calm,-,N/A,,Clear,0,2013-08-18 10:35:00
6:55 AM,42.1,42.1,100,30.24,1.5,Calm,Calm,-,N/A,,Mist,0,2013-08-18 10:55:00
7:15 AM,42.8,42.8,100,30.25,0.8,Calm,Calm,-,N/A,,Mist,0,2013-08-18 11:15:00
7:35 AM,47.1,46.2,97,30.25,10.0,Calm,Calm,-,N/A,,Clear,0,2013-08-18 11:35:00
7:55 AM,48.4,46.4,93,30.25,10.0,Calm,Calm,-,N/A,,Clear,0,2013-08-18 11:55:00
8:15 AM,52.3,49.1,89,30.25,10.0,Calm,Calm,-,N/A,,Clear,0,2013-08-18 12:15:00
8:35 AM,54.0,48.7,82,30.25,10.0,Calm,Calm,-,N/A,,Clear,0,2013-08-18 12:35:00
8:55 AM,58.5,50.9,76,30.26,10.0,Calm,Calm,-,N/A,,Clear,0,2013-08-18 12:55:00
9:15 AM,61.5,50.7,68,30.25,10.0,Calm,Calm,-,N/A,,Clear,0,2013-08-18 13:15:00
9:35 AM,68.5,52.7,57,30.25,10.0,Calm,Calm,-,N/A,,Clear,0,2013-08-18 13:35:00
9:55 AM,71.4,51.3,49,30.25,10.0,WNW,3.5,-,N/A,,Clear,290,2013-08-18 13:55:00
10:15 AM,73.6,48.9,42,30.25,10.0,WNW,5.8,-,N/A,,Clear,290,2013-08-18 14:15:00
10:35 AM,76.1,49.8,40,30.25,10.0,West,5.8,-,N/A,,Clear,280,2013-08-18 14:35:00
10:54 AM,76.3,46.6,35,30.24,10.0,Calm,Calm,-,N/A,,Clear,0,2013-08-18 14:54:00
11:15 AM,78.8,49.5,36,30.24,10.0,SSE,3.5,-,N/A,,Clear,160,2013-08-18 15:15:00
11:35 AM,78.8,49.3,35,30.23,10.0,SW,4.6,-,N/A,,Clear,230,2013-08-18 15:35:00
11:54 AM,78.6,46.0,32,30.23,10.0,SSE,3.5,-,N/A,,Clear,160,2013-08-18 15:54:00
12:15 PM,78.8,45.5,31,30.22,10.0,Calm,Calm,-,N/A,,Clear,0,2013-08-18 16:15:00
12:35 PM,79.0,46.8,32,30.21,10.0,South,6.9,-,N/A,,Clear,180,2013-08-18 16:35:00
12:54 PM,79.3,46.8,32,30.21,10.0,South,6.9,-,N/A,,Clear,190,2013-08-18 16:54:00
1:15 PM,81.3,45.3,28,30.20,10.0,SSE,9.2,-,N/A,,Clear,160,2013-08-18 17:15:00
1:35 PM,81.0,44.4,27,30.19,10.0,ESE,6.9,-,N/A,,Clear,120,2013-08-18 17:35:00
1:54 PM,81.7,43.7,26,30.19,10.0,South,5.8,-,N/A,,Clear,170,2013-08-18 17:54:00
2:15 PM,82.2,45.7,28,30.18,10.0,WNW,3.5,-,N/A,,Clear,290,2013-08-18 18:15:00
2:35 PM,81.9,44.4,27,30.18,10.0,SSW,5.8,-,N/A,,Clear,210,2013-08-18 18:35:00
2:55 PM,82.4,44.8,27,30.18,10.0,SW,6.9,-,N/A,,Clear,220,2013-08-18 18:55:00
3:15 PM,82.6,43.7,25,30.17,10.0,SW,9.2,-,N/A,,Clear,230,2013-08-18 19:15:00
3:35 PM,82.0,42.3,24,30.16,10.0,South,8.1,-,N/A,,Clear,170,2013-08-18 19:35:00
3:55 PM,82.9,43.0,24,30.16,10.0,South,10.4,-,N/A,,Clear,180,2013-08-18 19:55:00
4:15 PM,82.4,42.8,25,30.15,10.0,South,4.6,-,N/A,,Clear,180,2013-08-18 20:15:00
4:35 PM,82.2,44.2,26,30.15,10.0,South,6.9,-,N/A,,Clear,180,2013-08-18 20:35:00
4:55 PM,83.3,44.2,25,30.14,10.0,SSE,8.1,-,N/A,,Clear,150,2013-08-18 20:55:00
5:15 PM,82.6,43.9,26,30.14,10.0,SSE,3.5,-,N/A,,Clear,160,2013-08-18 21:15:00
5:34 PM,82.2,44.6,27,30.13,10.0,SSE,5.8,-,N/A,,Clear,150,2013-08-18 21:34:00
5:55 PM,82.2,44.4,26,30.13,10.0,South,5.8,-,N/A,,Clear,190,2013-08-18 21:55:00
6:15 PM,82.0,43.5,26,30.13,10.0,WSW,6.9,-,N/A,,Clear,240,2013-08-18 22:15:00
6:34 PM,81.9,45.3,28,30.13,10.0,South,8.1,-,N/A,,Clear,170,2013-08-18 22:34:00
6:55 PM,81.1,46.2,29,30.13,10.0,SSW,6.9,-,N/A,,Clear,200,2013-08-18 22:55:00
7:15 PM,81.0,45.0,28,30.12,10.0,SSW,4.6,-,N/A,,Clear,200,2013-08-18 23:15:00
7:34 PM,79.7,45.1,29,30.12,10.0,South,4.6,-,N/A,,Clear,190,2013-08-18 23:34:00
7:55 PM,78.3,48.4,35,30.13,10.0,NW,6.9,-,N/A,,Clear,310,2013-08-18 23:55:00
8:15 PM,75.7,50.7,41,30.13,10.0,NW,3.5,-,N/A,,Clear,320,2013-08-19 00:15:00
8:34 PM,73.6,52.3,47,30.13,10.0,NW,8.1,-,N/A,,Clear,310,2013-08-19 00:34:00
8:55 PM,70.3,51.1,50,30.14,10.0,NW,3.5,-,N/A,,Clear,320,2013-08-19 00:55:00
9:15 PM,68.7,50.9,53,30.14,10.0,NNW,3.5,-,N/A,,Clear,330,2013-08-19 01:15:00
9:34 PM,68.4,52.9,58,30.14,10.0,WNW,3.5,-,N/A,,Clear,290,2013-08-19 01:34:00
9:55 PM,63.0,50.4,63,30.14,10.0,Calm,Calm,-,N/A,,Clear,0,2013-08-19 01:55:00
10:15 PM,61.0,49.5,66,30.14,10.0,Calm,Calm,-,N/A,,Clear,0,2013-08-19 02:15:00
10:34 PM,59.9,51.1,73,30.14,10.0,Calm,Calm,-,N/A,,Clear,0,2013-08-19 02:34:00
10:55 PM,58.5,50.7,75,30.14,10.0,Calm,Calm,-,N/A,,Clear,0,2013-08-19 02:55:00
11:15 PM,57.0,52.2,84,30.13,10.0,Calm,Calm,-,N/A,,Clear,0,2013-08-19 03:15:00
11:34 PM,58.5,52.9,82,30.14,10.0,Calm,Calm,-,N/A,,Clear,0,2013-08-19 03:34:00
11:55 PM,55.9,52.0,87,30.14,10.0,Calm,Calm,-,N/A,,Clear,0,2013-08-19 03:55:00